Погода в Житковичи

Погода в Житковичи : погода сейчас, прогноз погоды и архив. Всё, что Вы хотите узнать о погоде в Житковичи!

Хотите узнать прогноз погоды в Житковичи? Тогда Вам сюда: Погода в Житковичи

Поиск расширенной информации на нашем сайте:

Полезная информация: Круг отрезной инваб.

Другие новости

Новости СМИ2

Главная страница сайта

Новости сайта

03.07.2017

Напоминаем, что на нашем специализированном сайте Метеоцентр.Азия вы можете получить высокодетализированные автоматические прогнозы погоды по пунктам России, СНГ и мира в авиационном формате (включающие направление и скорость ветра, видимость, явления погоды, количество и форму облачности, нижнюю и верхнюю границу облачности).

Рекомендуем: Ворота гаражные секционные отзыв о гаражные секционные ворота.

Погода в Житковичи - сегодня

Время (UTC), дата Ветер
(°,м/с) 
Видим.   Явления Облачность Т
(°С)
Тd
(°С)
f(%) Тe
(°С)
Pmin
(гПа)
dP
(гПа)
Po
(мм)
O2
(г/м3)
Тmin Tmax R s Состояние
почвы
12 20.08.17 140 (ЮВ) 20000 м    8/3 1000 м верхняя 
[Cu med, cong|Ci fib]
+32.9 +11.8 28 +37  1014.8  -1.5  750  267           
15 20.08.17 120 (ЮВ) 2{11}  20000 м    10/3 600 м кучево-дожд., средняя, верхняя 
[Cb cap|Ac trans|Cs]
+30.6 +12.5 33 +35  1014.1  -0.8  749  269           
18 20.08.17 тихо ()   20000 м    10/4 600 м кучево-дожд., верхняя 
[Cb cap|Cs]
+23 +15.1 61 +32  1014.5  749  275    +34.2       
21 20.08.17 тихо ()   10 км    ясно 
+17 +15.1 89 +26  1014.6  -0.2  749  281           
00 21.08.17 230 (ЮЗ) 10 км    ясно 
+19 +16.2 84 +31  1014.5  749  279           
03 21.08.17 270 (З) 4000 м  дымка  9/0 средняя 
[Ac trans]
+17.4 +16.5 94 +30  1014.5  749  280           
06 21.08.17 260 (З) 10 км    10/4 600 м средняя 
[Sc|Ac As]
+18.3 +16.6 90 +31  1014.7  0.2  749  279  +16.8         
09 21.08.17 280 (З) 10 км    10/6 600 м средняя, верхняя 
[Sc|Ac trans|Ci fib]
+20.6 +15.9 74 +31  1014.9  0.3  749  277           
12 21.08.17 300 (СЗ) 10 км    10/8 600 м кучево-дожд., средняя 
[Cb cap|Ac und]
+17.3 +14.3 83 +25  1003.3  0.7  750  281           
15 21.08.17 290 (З) 10 км  {ливн. осадки}  10/8 600 м кучево-дожд., средняя 
[Cb cap|Ac und]
+16.3 +12.9 80 +22  1015.8  750  283      0.0     
18 21.08.17 300 (СЗ) 10 км  {ливн. осадки}  10/8 600 м кучево-дожд., средняя 
[Cb cap|Ac und]
+14.9 +12.3 84 +20  1016.3  0.4  750  284    +21.4  0.0     
21 21.08.17 310 (СЗ) 4000 м  слаб. ливневой дождь  10/8 600 м кучево-дожд., средняя 
[Cb cap|Ac As]
+13.8 +12.9 94 +19  1016.3  750  285      0.0     
00 22.08.17 260 (З) 4000 м  дымка{ливн. осадки}  10/8 600 м кучево-дожд., средняя 
[Cb cap|Ac und]
+13.4 +12.6 95 +20  1016  -0.3  750  286      0.0     
03 22.08.17 270 (З) 4000 м  дымка  10/5 600 м кучево-дожд., средняя 
[Cb cap|Ac und]
+13.1 +12.2 94 +18  1015.5  -0.6  749  286      0.5     
06 22.08.17 280 (З) 10 км    9/9 600 м 
[Sc]
+13 +10.9 87 +15  1014.9  -0.6  749  286  +12.3    0.5     
09 22.08.17 310 (СЗ) 10 км    10/3 600 м средняя 
[Sc|Ac As]
+15.8 +11.5 76 +20  1014.3  -0.4  749  283           
12 22.08.17 300 (СЗ) 20000 м    10/3 600 м кучево-дожд., средняя, верхняя 
[Cb cap|Ac trans|Cs]
+18.8 +10.6 59 +21  1013.6  -0.6  748  280           
15 22.08.17 310 (СЗ) 20000 м    10/1 600 м средняя, верхняя 
[Sc diur, vesp|Ac cuf|Cs]
+19 +9.8 55 +21  1012.6  -0.9  748  280           
18 22.08.17 260 (З) 10 км    10/0 средняя 
[Ac As]
+16.5 +11.5 72 +21  1011.9  -0.8  747  282    +20       
21 22.08.17 290 (З) 10 км    10/0 средняя 
[As op]
+14.8 +11.4 80 +18  1010.9  -1.1  746  283           
00 23.08.17 270 (З) 10 км    9/9 600 м 
[Sc]
+13 +10.7 86 +16  1009.6  -1.4  745  285           
03 23.08.17 280 (З) 10 км    9/9 600 м 
[Sc]
+12.9 +10.7 86 +15  1009.1  -0.5  745  285           
06 23.08.17 260 (З) 10 км    9/8 600 м средняя 
[Sc|Ac trans]
+13.7 +11.1 84 +17  1008.6  -0.4  744  284  +12.8         
09 23.08.17 280 (З) 10 км  в посл. час ливневой дождь  9/5 600 м кучево-дожд., средняя, верхняя 
[Cb cap|Ac trans|Ci fib]
+16.2 +12.8 80 +22  1008.8  0.3  745  281         
12 23.08.17 290 (З) 4{11}  10 км  {ливн. осадки}  9/4 600 м кучево-дожд., средняя, верхняя 
[Cb cap|Ac trans|Ci fib]
+19.7 +9.2 51 +20  1008.4  -0.2  744  278      0.0     
Время (UTC), дата Ветер
(°,м/с) 
Видим.   Явления Облачность Т
(°С)
Тd
(°С)
f(%) Тe
(°С)
Pmin
(гПа)
dP
(гПа)
Po
(мм)
O2
(г/м3)
Тmin Tmax R s Состояние
почвы

Для получения пояснительной информации подведите курсор к названию столбца.

ПОГОДА в Житковичи - архив

Всё, что Вы хотите узнать о погоде в Житковичи - удобно и подробно!

Выберите нужную дату (начиная с 1 января 2015* года) и нажмите кнопку "Найти".
Будут отображены архивные сводки погоды по пункту Житковичи, начиная с указанной даты.


Отображать данные в формате CSV (для использования в таблицах Excel)


Внимание! Наш архив погоды предназначен исключительно для личного некоммерческого использования в познавательных целях. Если Вам необходимы официальные справки о состоянии погоды (для производственных, юридических, коммерческих и т.п. целей), обращайтесь в органы Росгидромета.

*Примечание: данная дата относится к архиву по метеостанциям СССР (Россия, СНГ, Балтия).
Архив по метеостанциям Зарубежной Европы и Азии (кроме Китая) хранится 10 дней, по другим регионам земного шара (Китай, Африка, Америка, Австралия, Океания) - 1 день.

Житковичи - район местоположения метеостанции


Название, широта, долгота, высота метеостанции:
Житковичи 52.2°ш. 27.9°д. 137 м над ур. моря [Беларусь]

Дополнительная информация

В oтличие oт бoльшинства пoгoдных сайтoв мы публикуем пoдрoбную метеoинфoрмацию в детальнoм прoфессиoнальнoм фoрмате.

Характеристики температуры и влажнoсти вoздуха измеряются на высoте 2 м в тени вдали oт зданий и деревьев.
Скoрoсть ветра измеряется на высoте 10 м (на урoвне рoста челoвека скoрoсть ветра ниже в 1.5-2 раза). Если метеoстанция нахoдится в гoрoде или в лесу, тo скoрoсть ветра занижена на 2-4 м/с пo сравнению с oткрытым местoм. Скoрoсть ветра над акватoриями крупных рек и oзёр, а также на вершинах хoлмoв на 2-5 м/с выше, чем в oбычных услoвиях.
Атмoсфернoе давление в разных тoчках местнoсти мoжет значительнo oтличаться oт давления на метеoстанции, в зависимoсти oт услoвий рельефа (при пoдъёме на 10 м давление пoнижается примернo на 1 мм рт.ст.).